Find STARLINK-37979

NORAD ID: 799501036 Int'l Des: 2026-146N Constellation: starlink operational

Current View

Loading 3D Globe...

About STARLINK-37979

STARLINK-37979 (NORAD 799501036) is a starlink constellation satellite launched Jun 12, 2026

About STARLINK-37979

Description loading...

Upcoming Passes

Passes for default location (London). Set your location on the main map for personalized predictions.

Altitude History

Loading altitude history...

Two-Line Element Set

1 99999C 2026146N 26176.37548610 .00675210 00000-0 103760-3 0 1760
2 99999 97.2855 22.0353 0011161 278.1990 91.3215 16.03841953 16
Epoch: Jun 25, 2026 • Age: 7 hours